Flag for Switzerland Weather past 2 weeks in Altdorf, Uri, Switzerland

Now
28 °F

Chilly.


Feels Like: 28 °F
Forecast: 17 / 38 °F
Wind: 2 mph from South

Location: Altdorf

Current Time: Jan 26, 2015 at 10:33:17 AM

Latest Report: Jan 26, 2015 at 9:00 AM


Visibility: N/A

Pressure: 30.44 "Hg

Humidity: 71%

Dew point: 20 °F

Location of AltdorfLocation

Historic Weather in Altdorf — Graph

°F

Altdorf temperature yesterday

Maximum temperature yesterday: 38 °F (at 2:00 PM)
Minimum temperature yesterday: 28 °F (at 10:00 PM)
Average temperature yesterday: 33 °F

Past Weeks' High & Low Weather Summary

 TemperatureHumidityPressure
High58 °F (Jan 16, 11:00 AM)95% (Jan 14, 10:00 PM)30.54 "Hg (Jan 14, 10:00 PM)
Low24 °F (Jan 26, 6:00 AM)23% (Jan 13, 2:00 PM)29.62 "Hg (Jan 16, 3:00 PM)
Average38 °F75%30.08 "Hg
* Reported Jan 11 9:00 AM — Jan 26 9:00 AM, Altdorf, Weather by CustomWeather, © 2014

Note: Actual official high and low records may vary slightly from our data, if they occured in-between our weather recording intervals... More about our weather records

Advertising

Altdorf weather history for previous 24 hours

 ConditionsComfort  
Time TempWeatherWind HumidityBarometerVisibility
9:00 AM
Jan 26
28 °FChilly.2 mph71%30.44 "HgN/A
8:00 AM26 °FChilly.3 mph73%30.45 "HgN/A
7:00 AM26 °FPassing clouds.2 mph74%30.46 "Hg12 mi
6:00 AM24 °FCold.5 mph81%30.46 "HgN/A
5:00 AM25 °FCold.2 mph80%30.46 "HgN/A
4:00 AM25 °FPassing clouds.3 mph77%30.46 "Hg14 mi
3:00 AM25 °FChilly.3 mph82%30.46 "HgN/A
2:00 AM27 °FChilly.3 mph74%30.45 "HgN/A
1:00 AM26 °FPassing clouds.5 mph77%30.46 "Hg14 mi
12:00 AM28 °FChilly.1 mph75%30.47 "HgN/A
11:00 PM
Jan 25
28 °FChilly.6 mph74%30.48 "HgN/A
10:00 PM28 °FPassing clouds.2 mph81%30.49 "Hg14 mi
9:00 PM29 °FChilly.3 mph79%30.48 "HgN/A
8:00 PM32 °FChilly.3 mph66%30.46 "HgN/A
7:00 PM32 °FPassing clouds.3 mph65%30.45 "Hg14 mi
6:00 PM34 °FChilly.7 mph67%30.44 "HgN/A
5:00 PM35 °FChilly.10 mph62%30.42 "HgN/A
4:00 PM35 °FPartly sunny.14 mph66%30.42 "Hg14 mi
3:00 PM36 °FChilly.14 mph65%30.41 "HgN/A
2:00 PM38 °FChilly.14 mph65%30.40 "HgN/A
1:00 PM37 °FPartly sunny.20 mph66%30.42 "Hg16 mi
12:00 PM35 °FChilly.14 mph69%30.44 "HgN/A
11:00 AM35 °FChilly.17 mph74%30.43 "HgN/A
10:00 AM34 °FPartly sunny.13 mph79%30.42 "Hg9 mi
Weather by CustomWeather, © 2014

See weather overviewHow to use our weather pages